Retour au catalogue

STARLINK-31041

ActifCommunicationsVLEO
NORAD 58537·PAYLOAD·🇺🇸 United States

Lancé Dec 8, 2023 depuis Vandenberg Space Force Base

Loading…

Prochains Passages (prochaines 24 heures)

TLE

FraisSource: CelesTrak SupGP

Époque: Sep 15, 2026, 02:47 UTC

1 58537C 23192G   26258.11645833 -.00030373  00000+0 -89725-3 0  2588
2 58537  53.1579 259.1578 0001280  94.0557 130.5022 15.34410193    13

Suivez STARLINK-31041 en temps réel avec AllMySat

Download on the App Store